User: anonymous   Login
Location: Seminole
(32.7190°N, 102.6440°W)
Time: 05:40:46
(UTC-06:00)
Language:

Meteor 2-10 - Orbit

View from above orbital plane
View from above orbital plane
View from above satellite
View from above satellite

Ground track
Ground track

The orbit data is extracted from the following two-line orbital elements,

1 14452U 83109A   16039.87935780  .00000069  00000-0  22263-4 0  9997
2 14452  81.1604 215.2287 0091040  15.5230 344.8707 14.26384669678558
Epoch (UTC): 08 February 2016 21:06:16
Eccentricity: 0.0091040
inclination: 81.1604°
perigee height: 738 km
apogee height: 869 km
right ascension of ascending node: 215.2287°
argument of perigee: 15.5230°
revolutions per day: 14.26384669
mean anomaly at epoch: 344.8707°
orbit number at epoch: 67855

The dashed part of the orbit path shows where the satellite is in the earth's shadow,  

DLR